• Join FlightAware (Why Join?)
  • Login
  • US Flag 
01:56PM EST


 

Airport Tracker/Info


-or-


 

Live Flight TrackerFlight Track Log ✈ BLS340 ✈ 02-May-2012 ✈ CYAG - CYQT

Flight Track Log - Related Links

Times and Time Zones

All times are in EDT time to prevent confusion due to time zone crossing. See the BLS340 flight status page for this flight to view local times or setup timezone preferences in your user account.

Time Position Orientation Groundspeed Altitude Reporting Facility
EDT Latitude Longitude Course Direction KTS MPH feet Rate Location/Type
10:48AM 48.6942 -93.4203 96° East 254 292 5,400  Level Minneapolis Center
10:49AM 48.6881 -93.3386 100° East 227 261 7,400 1,884 Climbing Minneapolis Center
10:50AM 48.6775 -93.2475 96° East 213 245 9,200 4,760 Climbing Minneapolis Center
10:51AM 48.6708 -93.1469 98° East 225 259 17,000 1,500 Climbing Minneapolis Center
10:52AM 48.6625 -93.0528 99° East 231 266 12,200 -1,900 Descending Minneapolis Center
10:53AM 48.6517 -92.9461 97° East 242 278 13,200 1,311 Climbing Minneapolis Center
10:54AM 48.6428 -92.8425 94° East 242 278 14,800 1,462 Climbing Minneapolis Center
10:55AM 48.6381 -92.7392 100° East 242 278 16,100 1,041 Climbing Minneapolis Center
10:56AM 48.6269 -92.6481 100° East 242 278 16,900 446 Climbing Minneapolis Center
10:57AM 48.6136 -92.5353 99° East 248 285 17,000 50 Climbing Minneapolis Center
10:58AM 48.6003 -92.4100 97° East 279 321 17,000  Level Minneapolis Center
10:59AM 48.5886 -92.2756 97° East 302 348 17,000 -50 Level Minneapolis Center
11:00AM 48.5789 -92.1503 96° East 308 354 16,900  Descending Minneapolis Center
11:01AM 48.5692 -92.0189 96° East 314 361 17,000  Climbing Minneapolis Center
11:02AM 48.5592 -91.8842 95° East 314 361 16,900 -50 Descending Minneapolis Center
11:03AM 48.5511 -91.7528 95° East 314 361 16,900  Level Minneapolis Center
11:04AM 48.5428 -91.6183 96° East 314 361 16,900 50 Level Minneapolis Center
11:05AM 48.5344 -91.4900 103° East 314 361 17,000  Climbing Minneapolis Center
11:07AM 48.5000 -91.2667 101° East 310 357 16,900  Descending Winnipeg Center
11:08AM 48.4833 -91.1333 90° East 310 357 17,000  Climbing Winnipeg Center
11:09AM 48.4833 -91.0167 99° East 310 357 16,900 -400 Descending Winnipeg Center
11:10AM 48.4667 -90.8667 101° East 310 357 16,200 -1,250 Descending Winnipeg Center
11:11AM 48.4500 -90.7333 99° East 330 380 14,400 -1,900 Descending Winnipeg Center
11:12AM 48.4333 -90.5833 90° East 340 391 12,400 -1,950 Descending Winnipeg Center
11:13AM 48.4333 -90.4667 99° East 340 391 10,500 -1,800 Descending Winnipeg Center
11:14AM 48.4167 -90.3167 90° East 330 380 8,800 -1,350 Descending Winnipeg Center
11:15AM 48.4167 -90.1833 90° East 310 357 7,800 -900 Descending Winnipeg Center
11:16AM 48.4167 -90.0833 117° Southeast 280 322 7,000 -800 Descending Winnipeg Center
11:17AM 48.3833 -89.9833 104° East 250 288 6,200 -1,050 Descending Winnipeg Center
11:18AM 48.3667 -89.8833 90° East 250 288 4,900 -1,050 Descending Winnipeg Center
11:19AM 48.3667 -89.7833 121° Southeast 230 265 4,100 -500 Descending Winnipeg Center
11:20AM 48.3333 -89.7000 135° Southeast 220 253 3,900 -100 Descending Winnipeg Center
11:21AM 48.3000 -89.6500 90° East 210 242 3,900 -50 Level Winnipeg Center
11:22AM 48.3000 -89.5500 90° East 200 230 3,800 -300 Descending Winnipeg Center
11:23AM 48.3000 -89.5000 73° East 190 219 3,300 -700 Descending Winnipeg Center
11:24AM 48.3167 -89.4167 63° Northeast 170 196 2,400 -850 Descending Winnipeg Center
11:25AM 48.3333 -89.3667 63° Northeast 160 184 1,600 -800 Descending Winnipeg Center
11:26AM 48.3500 -89.3167 63° Northeast 140 161 800 -800 Descending Winnipeg Center